DW1384 Weather Reports


Display with metric or nautical units.
time (UTC)temp
F
wind
direction
speed
MPH
gust
MPH
rain 1hr
in
rain 24hr
in
rain mn
in
humidity
%
barometer
mb
20260506101521 54 305 0.0 0.0 0.00 0.00 0.00 86 1005.2
20260506100753 54 10 0.0 0.0 0.00 0.00 0.00 87 1005.2
20260506100734 53 318 0.0 0.0 0.00 0.00 0.00 87 1005.1
20260506095742 53 330 0.0 0.0 0.00 0.00 0.00 87 1005.1
20260506095718 53 284 0.0 0.0 0.00 0.00 0.00 88 1005.1
20260506094730 53 273 0.0 0.0 0.00 0.00 0.00 88 1005.1
20260506094223 53 255 0.0 0.0 0.00 0.00 0.00 88 1005.0
20260506093717 54 339 0.0 0.0 0.00 0.00 0.00 88 1005.0
20260506093435 53 15 0.0 0.0 0.00 0.00 0.00 88 1005.1
20260506092708 53 294 0.0 0.0 0.00 0.00 0.00 88 1005.2
20260506092208 53 7 0.0 0.0 0.00 0.00 0.00 88 1005.1
20260506091708 53 320 0.0 0.0 0.00 0.00 0.00 89 1005.1
20260506091208 53 321 0.0 0.0 0.00 0.00 0.00 89 1005.1
20260506090709 53 326 0.0 0.0 0.00 0.00 0.00 89 1005.1
20260506090206 53 7 0.0 0.0 0.00 0.00 0.00 89 1005.1
20260506085706 53 337 0.0 0.0 0.00 0.00 0.00 89 1005.1
20260506085207 52 3 0.0 0.0 0.00 0.00 0.00 89 1005.0
20260506084704 52 353 0.0 0.0 0.00 0.00 0.00 89 1004.9
20260506084202 52 343 0.0 0.0 0.00 0.00 0.00 89 1004.9
20260506083702 53 336 0.0 0.0 0.00 0.00 0.00 89 1004.8
20260506083202 52 6 0.0 0.0 0.00 0.00 0.00 89 1004.8
20260506082920 52 330 0.0 0.0 0.00 0.00 0.00 89 1004.7
20260506082410 53 319 0.0 0.0 0.00 0.00 0.00 90 1004.5
20260506082120 53 7 0.0 0.0 0.00 0.00 0.00 90 1004.5
20260506081125 52 325 0.0 0.0 0.00 0.00 0.00 90 1004.6
20260506080615 52 358 0.0 0.0 0.00 0.00 0.00 90 1004.5
20260506080116 52 24 0.0 0.0 0.00 0.00 0.00 90 1004.6
20260506073516 52 305 0.0 0.0 0.00 0.00 0.00 90 1004.6
20260506073001 52 353 0.0 0.0 0.00 0.00 0.00 90 1004.6
20260506072453 52 348 0.0 0.0 0.00 0.00 0.00 90 1004.6
20260506071939 51 348 0.0 0.0 0.00 0.00 0.00 90 1004.6
20260506071431 51 319 0.0 0.0 0.00 0.00 0.00 90 1004.6
20260506070919 51 332 0.0 0.0 0.00 0.00 0.00 90 1004.6
20260506070403 52 358 0.0 0.0 0.00 0.00 0.00 90 1004.7
20260506062129 51 333 0.0 0.0 0.00 0.00 0.00 90 1004.5
20260506061625 51 329 0.0 0.0 0.00 0.00 0.00 90 1004.4
20260506061128 51 330 0.0 0.0 0.00 0.00 0.00 90 1004.4
20260506060638 51 328 0.0 0.0 0.00 0.00 0.00 90 1004.4
20260506060127 51 343 0.0 0.0 0.00 0.00 0.00 90 1004.4
20260506051127 51 293 0.0 0.0 0.00 0.00 0.00 90 1004.3
20260506050627 51 290 0.0 0.0 0.00 0.00 0.00 90 1004.4
20260506050125 51 289 0.0 0.0 0.00 0.00 0.00 90 1004.3
20260506050103 51 296 0.0 0.0 0.00 0.00 0.00 90 1004.3
20260506045126 51 294 0.0 0.0 0.00 0.00 0.00 90 1004.3
20260506044625 51 296 0.0 0.0 0.00 0.00 0.00 90 1004.3
20260506044123 51 300 0.0 0.0 0.00 0.00 0.00 90 1004.3
20260506043619 51 304 0.0 0.0 0.00 0.00 0.00 90 1004.3
20260506043119 51 309 0.0 0.0 0.00 0.00 0.00 90 1004.3
20260506042621 51 302 0.0 0.0 0.00 0.00 0.00 90 1004.3
20260506042119 52 297 0.0 0.0 0.00 0.00 0.00 90 1004.3
20260506041618 52 297 0.0 0.0 0.00 0.00 0.00 90 1004.3
20260506041118 52 297 0.0 0.0 0.00 0.00 0.00 90 1004.3
20260506040619 52 297 0.0 0.0 0.00 0.00 0.00 90 1004.3
20260506040118 52 305 0.0 0.0 0.00 0.00 0.00 90 1004.3
20260506035617 52 307 0.0 0.0 0.00 0.00 0.00 90 1004.3
20260506035336 52 302 0.0 0.0 0.00 0.00 0.00 90 1004.3
20260506034618 52 295 0.0 0.0 0.00 0.00 0.00 90 1004.3
20260506034118 52 271 0.0 0.0 0.00 0.00 0.00 90 1004.3
20260506033619 52 290 0.0 0.0 0.00 0.00 0.00 90 1004.3
20260506033118 52 294 0.0 0.0 0.00 0.00 0.00 90 1004.3
20260506032617 52 294 0.0 0.0 0.00 0.00 0.00 90 1004.3
20260506032118 52 293 0.0 0.0 0.00 0.00 0.00 90 1004.3
20260506031618 52 294 0.0 0.0 0.00 0.00 0.00 90 1004.3
20260506031607 52 294 0.0 0.0 0.00 0.00 0.00 90 1004.2
20260506030617 52 294 0.0 0.0 0.00 0.00 0.00 90 1004.2
20260506030122 52 297 0.0 0.0 0.00 0.00 0.00 90 1004.3
20260506025631 52 266 0.0 0.0 0.00 0.00 0.00 90 1004.4
20260506025117 52 263 0.0 0.0 0.00 0.00 0.00 90 1004.4
20260506024618 52 278 0.0 0.0 0.00 0.00 0.00 90 1004.4
20260506024348 53 281 0.0 0.0 0.00 0.00 0.00 90 1004.4
20260506023620 53 304 0.0 0.0 0.00 0.00 0.00 90 1004.3
20260506023342 52 304 0.0 0.0 0.00 0.00 0.00 90 1004.2
20260506022619 52 298 0.0 0.0 0.00 0.00 0.00 90 1004.3
20260506022602 52 284 0.0 0.0 0.00 0.00 0.00 90 1004.5
20260506021614 52 279 0.0 0.0 0.00 0.00 0.00 90 1004.5
20260506021115 52 272 0.0 0.0 0.00 0.00 0.00 90 1004.6
20260506020613 52 259 0.0 0.0 0.00 0.00 0.00 90 1004.6
20260506020115 53 258 0.0 0.0 0.00 0.00 0.00 90 1004.6
20260506015613 53 267 0.0 0.0 0.00 0.00 0.00 90 1004.6
20260506015113 53 271 0.0 0.0 0.00 0.00 0.00 90 1004.5
20260506014613 53 302 0.0 0.0 0.00 0.00 0.00 90 1004.6
20260506014115 53 280 0.0 0.0 0.00 0.00 0.00 90 1004.6
20260506013613 52 263 0.0 0.0 0.00 0.00 0.00 90 1004.5
20260506013331 52 263 0.0 0.0 0.00 0.00 0.00 90 1004.6
20260506012614 52 218 0.0 0.0 0.00 0.00 0.00 90 1004.6
20260506012341 53 219 0.0 0.0 0.00 0.00 0.00 90 1004.7
20260506011615 53 240 0.0 0.0 0.00 0.00 0.00 90 1004.7
20260506011111 53 245 0.0 0.0 0.00 0.00 0.00 90 1004.7
20260506010614 53 262 0.0 0.0 0.00 0.00 0.00 90 1004.7
20260506010112 53 275 0.0 0.0 0.00 0.00 0.00 90 1004.6
20260506005613 53 288 0.0 0.0 0.00 0.00 0.00 90 1004.7
20260506005108 53 290 0.0 0.0 0.00 0.00 0.00 90 1004.6
20260506004607 53 289 0.0 0.0 0.00 0.00 0.00 90 1004.7
20260506004107 53 293 0.0 0.0 0.00 0.00 0.00 90 1004.7
20260506003607 53 284 0.0 0.0 0.00 0.00 0.00 90 1004.8
20260506003109 53 290 0.0 0.0 0.00 0.00 0.00 90 1004.8
20260506002825 53 302 0.0 0.0 0.00 0.00 0.00 90 1004.8
20260506002107 53 287 0.0 0.0 0.00 0.00 0.00 90 1004.9
20260506001609 53 305 0.0 0.0 0.00 0.00 0.00 90 1004.9
20260506001332 53 281 0.0 0.0 0.00 0.00 0.00 90 1004.9
20260506000608 53 280 0.0 0.0 0.00 0.00 0.00 90 1005.0
20260506000110 53 272 0.0 0.0 0.00 0.00 0.00 90 1005.0
20260505235831 53 299 0.0 0.0 0.00 0.00 0.00 90 1005.1
20260505235108 53 280 0.0 0.0 0.00 0.00 0.00 90 1005.2
20260505234607 53 309 0.0 0.0 0.00 0.00 0.00 90 1005.2
20260505234107 53 269 0.0 0.0 0.00 0.00 0.00 90 1005.2
20260505234054 53 330 0.0 0.0 0.00 0.00 0.00 90 1005.4
20260505233108 53 311 0.0 0.0 0.00 0.00 0.00 90 1005.3
20260505232607 53 343 0.0 0.0 0.00 0.00 0.00 90 1005.4
20260505232107 53 299 0.0 0.0 0.00 0.00 0.00 89 1005.4
20260505231607 53 303 0.0 0.0 0.00 0.00 0.00 89 1005.5
20260505231109 53 311 0.0 0.0 0.00 0.00 0.00 89 1005.5
20260505230608 53 297 0.0 0.0 0.00 0.00 0.00 90 1005.5
20260505230334 53 276 0.0 0.0 0.00 0.00 0.00 90 1005.5
20260505225607 53 285 0.0 0.0 0.00 0.00 0.00 90 1005.6
20260505225111 53 300 0.0 0.0 0.00 0.00 0.00 90 1005.6
20260505224603 53 317 0.0 0.0 0.00 0.00 0.00 89 1005.6
20260505224105 53 319 0.0 0.0 0.00 0.00 0.00 89 1005.6
20260505223605 53 324 0.0 0.0 0.00 0.00 0.00 89 1005.7
20260505223558 53 310 0.0 0.0 0.00 0.00 0.00 89 1005.6
20260505222603 53 343 0.0 0.0 0.00 0.00 0.00 89 1005.7
20260505222104 53 296 0.0 0.0 0.00 0.00 0.00 89 1005.7
20260505221603 53 274 0.0 0.0 0.00 0.00 0.00 89 1005.7
20260505221104 53 274 0.0 0.0 0.00 0.00 0.00 89 1005.7
20260505220559 53 274 0.0 0.0 0.00 0.00 0.00 89 1005.7
20260505220329 53 274 0.0 0.0 0.00 0.00 0.00 89 1005.7
20260505215814 53 274 0.0 0.0 0.00 0.00 0.00 89 1005.8
20260505215056 53 274 0.0 0.0 0.00 0.00 0.00 89 1005.8
20260505214820 53 272 0.0 0.0 0.00 0.00 0.00 89 1005.8
20260505214316 53 272 0.0 0.0 0.00 0.00 0.00 89 1005.9
20260505213810 53 272 0.0 0.0 0.00 0.00 0.00 89 1005.9
20260505213055 53 271 0.0 0.0 0.00 0.00 0.00 89 1005.9
20260505212557 53 270 0.0 0.0 0.00 0.00 0.00 89 1006.0
20260505212054 53 271 0.0 0.0 0.00 0.00 0.00 89 1006.1
20260505211548 53 271 0.0 0.0 0.00 0.00 0.00 89 1006.1
20260505211049 53 271 0.0 0.0 0.00 0.00 0.00 89 1006.1
20260505210808 53 271 0.0 0.0 0.00 0.00 0.00 89 1006.2
20260505210058 54 309 0.0 0.0 0.00 0.00 0.00 89 1006.2
20260505205547 54 348 0.0 0.0 0.00 0.00 0.00 89 1006.2
20260505205047 54 299 0.0 0.0 0.00 0.00 0.00 89 1006.2
20260505204547 54 307 0.0 0.0 0.00 0.00 0.00 89 1006.3
20260505204047 54 313 0.0 0.0 0.00 0.00 0.00 89 1006.3
20260505203547 54 307 0.0 0.0 0.00 0.00 0.00 89 1006.3
20260505203046 54 328 0.0 0.0 0.00 0.00 0.00 89 1006.3
20260505202547 54 323 0.0 0.0 0.00 0.00 0.00 89 1006.3
20260505202042 54 300 0.0 0.0 0.00 0.00 0.00 89 1006.2
20260505201534 54 348 0.0 0.0 0.00 0.00 0.00 89 1006.3
20260505201031 54 314 0.0 0.0 0.00 0.00 0.00 89 1006.3
20260505200758 55 309 0.0 0.0 0.00 0.00 0.00 89 1006.2
20260505200031 55 312 0.0 0.0 0.00 0.00 0.00 89 1006.2
20260505195532 55 321 0.0 0.0 0.00 0.00 0.00 89 1006.3
20260505195030 55 318 0.0 0.0 0.00 0.00 0.00 89 1006.2
20260505194532 55 325 0.0 0.0 0.00 0.00 0.00 89 1006.2
20260505194031 55 357 0.0 0.0 0.00 0.00 0.00 89 1006.3
20260505193530 55 353 0.0 0.0 0.00 0.00 0.00 88 1006.3
20260505193028 55 353 0.0 0.0 0.00 0.00 0.00 88 1006.3
20260505192527 55 353 0.0 0.0 0.00 0.00 0.00 88 1006.3
20260505192026 55 336 0.0 0.0 0.00 0.00 0.00 88 1006.3
20260505191527 55 336 0.0 0.0 0.00 0.00 0.00 88 1006.3
20260505191247 55 320 0.0 0.0 0.00 0.00 0.00 88 1006.3
20260505190525 55 320 0.0 0.0 0.00 0.00 0.00 88 1006.3
20260505190026 55 312 0.0 0.0 0.00 0.00 0.00 88 1006.3
20260505185524 55 312 0.0 0.0 0.00 0.00 0.00 88 1006.2
20260505185025 56 312 0.0 0.0 0.00 0.00 0.00 88 1006.3
20260505184522 56 312 0.0 0.0 0.00 0.00 0.00 88 1006.3
20260505184236 56 312 0.0 0.0 0.00 0.00 0.00 88 1006.4
20260505183519 56 312 0.0 0.0 0.00 0.00 0.00 88 1006.4
20260505183018 56 315 0.0 0.0 0.00 0.00 0.00 88 1006.4
20260505182517 56 324 0.0 0.0 0.00 0.00 0.00 88 1006.3
20260505182016 56 325 0.0 0.0 0.00 0.00 0.00 88 1006.4
20260505181518 56 323 0.0 0.0 0.00 0.00 0.00 88 1006.4
20260505181016 56 323 0.0 0.0 0.00 0.00 0.00 88 1006.4
20260505180528 56 322 0.0 0.0 0.00 0.00 0.00 88 1006.4
20260505180014 56 322 0.0 0.0 0.00 0.00 0.00 87 1006.4
20260505180002 56 322 0.0 0.0 0.00 0.00 0.00 87 1006.4
20260505175011 56 331 0.0 0.0 0.00 0.00 0.00 87 1006.4
20260505174511 56 293 0.0 0.0 0.00 0.00 0.00 87 1006.3
20260505174011 56 301 0.0 0.0 0.00 0.00 0.00 87 1006.4
20260505173513 56 306 0.0 0.0 0.00 0.00 0.00 87 1006.4
20260505173011 57 305 0.0 0.0 0.00 0.00 0.00 87 1006.4
20260505172516 57 300 0.0 0.0 0.00 0.00 0.00 87 1006.4
20260505172010 57 294 0.0 0.0 0.00 0.00 0.00 87 1006.4
20260505171512 57 301 0.0 0.0 0.00 0.00 0.00 87 1006.5
20260505171012 57 313 0.0 0.0 0.00 0.00 0.00 86 1006.5
20260505170508 57 294 0.0 0.0 0.00 0.00 0.00 86 1006.5
20260505170007 57 315 0.0 0.0 0.00 0.00 0.00 86 1006.5
20260505165506 58 322 0.0 0.0 0.00 0.00 0.00 86 1006.5
20260505165014 58 299 0.0 0.0 0.00 0.00 0.00 86 1006.5
20260505165006 58 315 0.0 0.0 0.00 0.00 0.00 86 1006.5
20260505164008 58 359 0.0 0.0 0.00 0.00 0.00 86 1006.5
20260505163508 58 18 0.0 0.0 0.00 0.00 0.00 85 1006.5
20260505163009 58 303 0.0 0.0 0.00 0.00 0.00 85 1006.4
20260505162509 58 8 0.0 0.0 0.00 0.00 0.00 85 1006.5
20260505162003 59 315 0.0 0.0 0.00 0.00 0.00 85 1006.5
20260505161722 58 22 0.0 0.0 0.00 0.00 0.00 85 1006.6
20260505161003 58 301 0.0 0.0 0.00 0.00 0.00 84 1006.5
20260505160725 58 313 0.0 0.0 0.00 0.00 0.00 84 1006.5
20260505152958 61 300 0.0 0.0 0.00 0.00 0.00 81 1006.4
20260505152500 61 334 0.0 0.0 0.00 0.00 0.00 81 1006.5
20260505152219 61 324 0.0 0.0 0.00 0.00 0.00 81 1006.5
20260505151458 61 303 0.0 0.0 0.00 0.00 0.00 80 1006.5
20260505150959 61 311 0.0 0.0 0.00 0.00 0.00 80 1006.4
20260505150459 61 324 0.0 0.0 0.00 0.00 0.00 80 1006.4
20260505140450 65 337 0.0 0.0 0.00 0.00 0.00 68 1006.9
20260505124946 64 301 0.0 0.0 0.00 0.00 0.00 70 1007.6
20260505124447 64 305 0.0 0.0 0.00 0.00 0.00 70 1007.6
20260505123946 64 306 0.0 0.0 0.00 0.00 0.00 71 1007.6
20260505123444 64 306 0.0 0.0 0.00 0.00 0.00 69 1007.6
20260505122943 65 303 0.0 0.0 0.00 0.00 0.00 68 1007.7
20260505122442 66 295 0.0 0.0 0.00 0.00 0.00 68 1007.7
20260505122214 66 270 0.0 0.0 0.00 0.00 0.00 69 1007.8
20260505121706 66 348 0.0 0.0 0.00 0.00 0.00 69 1007.8
20260505120942 65 13 0.0 0.0 0.00 0.00 0.00 72 1007.8
20260505120444 65 265 0.0 0.0 0.00 0.00 0.00 72 1007.8
20260505115942 65 1 0.0 0.0 0.00 0.00 0.00 74 1007.9
20260505115443 64 353 0.0 0.0 0.00 0.00 0.00 75 1008.0
20260505114942 63 4 0.0 0.0 0.00 0.00 0.00 76 1008.1
20260505114700 62 270 0.0 0.0 0.00 0.00 0.00 76 1008.1
20260505113942 62 270 0.0 0.0 0.00 0.00 0.00 76 1008.0
20260505113708 62 270 0.0 0.0 0.00 0.00 0.00 76 1008.0
20260505112942 62 270 0.0 0.0 0.00 0.00 0.00 76 1008.1
20260505112443 62 259 0.0 0.0 0.00 0.00 0.00 77 1008.1
20260505111955 62 259 0.0 0.0 0.00 0.00 0.00 77 1008.2
20260505111442 62 259 0.0 0.0 0.00 0.00 0.00 78 1008.2
20260505110942 62 259 0.0 0.0 0.00 0.00 0.00 79 1008.2
20260505110704 62 259 0.0 0.0 0.00 0.00 0.00 79 1008.4
20260505101903 61 8 0.0 0.0 0.00 0.00 0.00 83 1008.8